Year,Month,Day,Hour,Minute,Value (Times are PST for temperature in C)
2007,09,14,00,00,11.40
2007,09,14,00,01,11.40
2007,09,14,00,02,11.40
2007,09,14,00,03,11.30
2007,09,14,00,04,11.30
2007,09,14,00,05,11.30
2007,09,14,00,06,11.30
2007,09,14,00,07,11.30
2007,09,14,00,08,11.30
2007,09,14,00,09,11.30
2007,09,14,00,10,11.30
2007,09,14,00,11,11.30
2007,09,14,00,12,11.30
2007,09,14,00,13,11.30
2007,09,14,00,14,11.30
2007,09,14,00,15,11.20
2007,09,14,00,16,11.20
2007,09,14,00,17,11.20
2007,09,14,00,18,11.20
2007,09,14,00,19,11.10
2007,09,14,00,20,11.10
2007,09,14,00,21,11.10
2007,09,14,00,22,11.00
2007,09,14,00,23,11.00
2007,09,14,00,24,11.00
2007,09,14,00,25,11.00
2007,09,14,00,26,11.00
2007,09,14,00,27,11.00
2007,09,14,00,28,11.00
2007,09,14,00,29,11.00
2007,09,14,00,30,11.10
2007,09,14,00,31,11.10
2007,09,14,00,32,11.00
2007,09,14,00,33,11.00
2007,09,14,00,34,11.00
2007,09,14,00,35,10.90
2007,09,14,00,36,10.90
2007,09,14,00,37,10.90
2007,09,14,00,38,10.90
2007,09,14,00,39,10.90
2007,09,14,00,40,10.90
2007,09,14,00,41,10.90
2007,09,14,00,42,10.80
2007,09,14,00,43,10.80
2007,09,14,00,44,10.80
2007,09,14,00,45,10.80
2007,09,14,00,46,10.80
2007,09,14,00,47,10.80
2007,09,14,00,48,10.80
2007,09,14,00,49,10.80
2007,09,14,00,50,10.80
2007,09,14,00,51,10.80
2007,09,14,00,52,10.80
2007,09,14,00,53,10.80
2007,09,14,00,54,10.70
2007,09,14,00,55,10.70
2007,09,14,00,56,10.70
2007,09,14,00,57,10.60
2007,09,14,00,58,10.60
2007,09,14,00,59,10.60
2007,09,14,01,00,10.60
2007,09,14,01,01,10.60
2007,09,14,01,02,10.60
2007,09,14,01,03,10.60
2007,09,14,01,04,10.60
2007,09,14,01,05,10.60
2007,09,14,01,06,10.60
2007,09,14,01,07,10.60
2007,09,14,01,08,10.60
2007,09,14,01,09,10.60
2007,09,14,01,10,10.60
2007,09,14,01,11,10.60
2007,09,14,01,12,10.60
2007,09,14,01,13,10.60
2007,09,14,01,14,10.50
2007,09,14,01,15,10.50
2007,09,14,01,16,10.50
2007,09,14,01,17,10.50
2007,09,14,01,18,10.50
2007,09,14,01,19,10.50
2007,09,14,01,20,10.50
2007,09,14,01,21,10.50
2007,09,14,01,22,10.50
2007,09,14,01,23,10.50
2007,09,14,01,24,10.50
2007,09,14,01,25,10.50
2007,09,14,01,26,10.50
2007,09,14,01,27,10.50
2007,09,14,01,28,10.50
2007,09,14,01,29,10.50
2007,09,14,01,30,10.50
2007,09,14,01,31,10.50
2007,09,14,01,32,10.50
2007,09,14,01,33,10.50
2007,09,14,01,34,10.50
2007,09,14,01,35,10.50
2007,09,14,01,36,10.50
2007,09,14,01,37,10.50
2007,09,14,01,38,10.50
2007,09,14,01,39,10.60
2007,09,14,01,40,10.60
2007,09,14,01,41,10.60
2007,09,14,01,42,10.60
2007,09,14,01,43,10.60
2007,09,14,01,44,10.60
2007,09,14,01,45,10.60
2007,09,14,01,46,10.60
2007,09,14,01,47,10.70
2007,09,14,01,48,10.70
2007,09,14,01,49,10.70
2007,09,14,01,50,10.70
2007,09,14,01,51,10.70
2007,09,14,01,52,10.70
2007,09,14,01,53,10.70
2007,09,14,01,54,10.70
2007,09,14,01,55,10.70
2007,09,14,01,56,10.70
2007,09,14,01,57,10.70
2007,09,14,01,58,10.70
2007,09,14,01,59,10.70
2007,09,14,02,00,10.70
2007,09,14,02,01,10.70
2007,09,14,02,02,10.70
2007,09,14,02,03,10.70
2007,09,14,02,04,10.70
2007,09,14,02,05,10.80
2007,09,14,02,06,10.80
2007,09,14,02,07,10.80
2007,09,14,02,08,10.90
2007,09,14,02,09,10.90
2007,09,14,02,10,10.90
2007,09,14,02,11,10.90
2007,09,14,02,12,10.90
2007,09,14,02,13,10.90
2007,09,14,02,14,10.90
2007,09,14,02,15,11.00
2007,09,14,02,16,11.00
2007,09,14,02,17,11.00
2007,09,14,02,18,11.00
2007,09,14,02,19,11.10
2007,09,14,02,20,11.10
2007,09,14,02,21,11.10
2007,09,14,02,22,11.10
2007,09,14,02,23,11.20
2007,09,14,02,24,11.20
2007,09,14,02,25,11.20
2007,09,14,02,26,11.20
2007,09,14,02,27,11.20
2007,09,14,02,28,11.20
2007,09,14,02,29,11.20
2007,09,14,02,30,11.20
2007,09,14,02,31,11.20
2007,09,14,02,32,11.20
2007,09,14,02,33,11.10
2007,09,14,02,34,11.10
2007,09,14,02,35,11.10
2007,09,14,02,36,11.10
2007,09,14,02,37,11.00
2007,09,14,02,38,11.00
2007,09,14,02,39,10.90
2007,09,14,02,40,10.90
2007,09,14,02,41,10.80
2007,09,14,02,42,10.80
2007,09,14,02,43,10.80
2007,09,14,02,44,10.70
2007,09,14,02,45,10.70
2007,09,14,02,46,10.60
2007,09,14,02,47,10.60
2007,09,14,02,48,10.60
2007,09,14,02,49,10.50
2007,09,14,02,50,10.50
2007,09,14,02,51,10.40
2007,09,14,02,52,10.40
2007,09,14,02,53,10.40
2007,09,14,02,54,10.30
2007,09,14,02,55,10.30
2007,09,14,02,56,10.30
2007,09,14,02,57,10.30
2007,09,14,02,58,10.30
2007,09,14,02,59,10.30
2007,09,14,03,00,10.20
2007,09,14,03,01,10.20
2007,09,14,03,02,10.20
2007,09,14,03,03,10.20
2007,09,14,03,04,10.20
2007,09,14,03,05,10.30
2007,09,14,03,06,10.30
2007,09,14,03,07,10.30
2007,09,14,03,08,10.30
2007,09,14,03,09,10.40
2007,09,14,03,10,10.40
2007,09,14,03,11,10.50
2007,09,14,03,12,10.50
2007,09,14,03,13,10.50
2007,09,14,03,14,10.50
2007,09,14,03,15,10.50
2007,09,14,03,16,10.40
2007,09,14,03,17,10.40
2007,09,14,03,18,10.40
2007,09,14,03,19,10.30
2007,09,14,03,20,10.30
2007,09,14,03,21,10.30
2007,09,14,03,22,10.30
2007,09,14,03,23,10.30
2007,09,14,03,24,10.30
2007,09,14,03,25,10.30
2007,09,14,03,26,10.30
2007,09,14,03,27,10.30
2007,09,14,03,28,10.30
2007,09,14,03,29,10.30
2007,09,14,03,30,10.30
2007,09,14,03,31,10.30
2007,09,14,03,32,10.30
2007,09,14,03,33,10.30
2007,09,14,03,34,10.40
2007,09,14,03,35,10.40
2007,09,14,03,36,10.40
2007,09,14,03,37,10.40
2007,09,14,03,38,10.50
2007,09,14,03,39,10.50
2007,09,14,03,40,10.50
2007,09,14,03,41,10.60
2007,09,14,03,42,10.60
2007,09,14,03,43,10.70
2007,09,14,03,44,10.70
2007,09,14,03,45,10.70
2007,09,14,03,46,10.80
2007,09,14,03,47,10.80
2007,09,14,03,48,10.80
2007,09,14,03,49,10.80
2007,09,14,03,50,10.80
2007,09,14,03,51,10.70
2007,09,14,03,52,10.70
2007,09,14,03,53,10.60
2007,09,14,03,54,10.60
2007,09,14,03,55,10.50
2007,09,14,03,56,10.40
2007,09,14,03,57,10.40
2007,09,14,03,58,10.30
2007,09,14,03,59,10.30
2007,09,14,04,00,10.30
2007,09,14,04,01,10.20
2007,09,14,04,02,10.20
2007,09,14,04,03,10.20
2007,09,14,04,04,10.20
2007,09,14,04,05,10.20
2007,09,14,04,06,10.20
2007,09,14,04,07,10.20
2007,09,14,04,08,10.10
2007,09,14,04,09,10.10
2007,09,14,04,10,10.10
2007,09,14,04,11,10.10
2007,09,14,04,12,10.10
2007,09,14,04,13,10.10
2007,09,14,04,14,10.00
2007,09,14,04,15,10.00
2007,09,14,04,16,10.00
2007,09,14,04,17,9.90
2007,09,14,04,18,9.90
2007,09,14,04,19,9.90
2007,09,14,04,20,9.90
2007,09,14,04,21,9.80
2007,09,14,04,22,9.80
2007,09,14,04,23,9.80
2007,09,14,04,24,9.80
2007,09,14,04,25,9.70
2007,09,14,04,26,9.70
2007,09,14,04,27,9.70
2007,09,14,04,28,9.70
2007,09,14,04,29,9.70
2007,09,14,04,30,9.70
2007,09,14,04,31,9.70
2007,09,14,04,32,9.70
2007,09,14,04,33,9.70
2007,09,14,04,34,9.70
2007,09,14,04,35,9.70
2007,09,14,04,36,9.70
2007,09,14,04,37,9.60
2007,09,14,04,38,9.60
2007,09,14,04,39,9.60
2007,09,14,04,40,9.60
2007,09,14,04,41,9.60
2007,09,14,04,42,9.60
2007,09,14,04,43,9.60
2007,09,14,04,44,9.60
2007,09,14,04,45,9.50
2007,09,14,04,46,9.60
2007,09,14,04,47,9.60
2007,09,14,04,48,9.50
2007,09,14,04,49,9.50
2007,09,14,04,50,9.50
2007,09,14,04,51,9.50
2007,09,14,04,52,9.50
2007,09,14,04,53,9.40
2007,09,14,04,54,9.40
2007,09,14,04,55,9.40
2007,09,14,04,56,9.30
2007,09,14,04,57,9.30
2007,09,14,04,58,9.30
2007,09,14,04,59,9.30
2007,09,14,05,00,9.30
2007,09,14,05,01,9.30
2007,09,14,05,02,9.30
2007,09,14,05,03,9.40
2007,09,14,05,04,9.40
2007,09,14,05,05,9.40
2007,09,14,05,06,9.40
2007,09,14,05,07,9.40
2007,09,14,05,08,9.40
2007,09,14,05,09,9.30
2007,09,14,05,10,9.30
2007,09,14,05,11,9.30
2007,09,14,05,12,9.30
2007,09,14,05,13,9.30
2007,09,14,05,14,9.30
2007,09,14,05,15,9.20
2007,09,14,05,16,9.20
2007,09,14,05,17,9.20
2007,09,14,05,18,9.30
2007,09,14,05,19,9.30
2007,09,14,05,20,9.30
2007,09,14,05,21,9.30
2007,09,14,05,22,9.30
2007,09,14,05,23,9.30
2007,09,14,05,24,9.20
2007,09,14,05,25,9.20
2007,09,14,05,26,9.30
2007,09,14,05,27,9.30
2007,09,14,05,28,9.30
2007,09,14,05,29,9.30
2007,09,14,05,30,9.30
2007,09,14,05,31,9.30
2007,09,14,05,32,9.20
2007,09,14,05,33,9.20
2007,09,14,05,34,9.20
2007,09,14,05,35,9.20
2007,09,14,05,36,9.10
2007,09,14,05,37,9.10
2007,09,14,05,38,9.10
2007,09,14,05,39,9.10
2007,09,14,05,40,9.10
2007,09,14,05,41,9.10
2007,09,14,05,42,9.20
2007,09,14,05,43,9.20
2007,09,14,05,44,9.40
2007,09,14,05,45,9.50
2007,09,14,05,46,9.50
2007,09,14,05,47,9.60
2007,09,14,05,48,9.60
2007,09,14,05,49,9.60
2007,09,14,05,50,9.60
2007,09,14,05,51,9.60
2007,09,14,05,52,9.60
2007,09,14,05,53,9.50
2007,09,14,05,54,9.40
2007,09,14,05,55,9.40
2007,09,14,05,56,9.40
2007,09,14,05,57,9.40
2007,09,14,05,58,9.40
2007,09,14,05,59,9.50
2007,09,14,06,00,9.60
2007,09,14,06,01,9.70
2007,09,14,06,02,9.80
2007,09,14,06,03,9.80
2007,09,14,06,04,9.80
2007,09,14,06,05,9.70
2007,09,14,06,06,9.70
2007,09,14,06,07,9.70
2007,09,14,06,08,9.60
2007,09,14,06,09,9.60
2007,09,14,06,10,9.50
2007,09,14,06,11,9.50
2007,09,14,06,12,9.40
2007,09,14,06,13,9.40
2007,09,14,06,14,9.40
2007,09,14,06,15,9.40
2007,09,14,06,16,9.40
2007,09,14,06,17,9.40
2007,09,14,06,18,9.40
2007,09,14,06,19,9.40
2007,09,14,06,20,9.40
2007,09,14,06,21,9.40
2007,09,14,06,22,9.40
2007,09,14,06,23,9.40
2007,09,14,06,24,9.40
2007,09,14,06,25,9.40
2007,09,14,06,26,9.40
2007,09,14,06,27,9.40
2007,09,14,06,28,9.40
2007,09,14,06,29,9.40
2007,09,14,06,30,9.40
2007,09,14,06,31,9.40
2007,09,14,06,32,9.40
2007,09,14,06,33,9.40
2007,09,14,06,34,9.40
2007,09,14,06,35,9.40
2007,09,14,06,36,9.40
2007,09,14,06,37,9.40
2007,09,14,06,38,9.40
2007,09,14,06,39,9.40
2007,09,14,06,40,9.40
2007,09,14,06,41,9.50
2007,09,14,06,42,9.50
2007,09,14,06,43,9.60
2007,09,14,06,44,9.70
2007,09,14,06,45,9.80
2007,09,14,06,46,9.80
2007,09,14,06,47,9.80
2007,09,14,06,48,9.80
2007,09,14,06,49,9.90
2007,09,14,06,50,9.90
2007,09,14,06,51,9.90
2007,09,14,06,52,9.90
2007,09,14,06,53,9.90
2007,09,14,06,54,10.00
2007,09,14,06,55,10.00
2007,09,14,06,56,10.10
2007,09,14,06,57,10.20
2007,09,14,06,58,10.20
2007,09,14,06,59,10.20
2007,09,14,07,00,10.20
2007,09,14,07,01,10.20
2007,09,14,07,02,10.20
2007,09,14,07,03,10.20
2007,09,14,07,04,10.20
2007,09,14,07,05,10.20
2007,09,14,07,06,10.20
2007,09,14,07,07,10.20
2007,09,14,07,08,10.20
2007,09,14,07,09,10.20
2007,09,14,07,10,10.20
2007,09,14,07,11,10.20
2007,09,14,07,12,10.10
2007,09,14,07,13,10.10
2007,09,14,07,14,10.00
2007,09,14,07,15,9.90
2007,09,14,07,16,9.90
2007,09,14,07,17,9.90
2007,09,14,07,18,9.90
2007,09,14,07,19,9.90
2007,09,14,07,20,9.90
2007,09,14,07,21,10.00
2007,09,14,07,22,10.00
2007,09,14,07,23,10.00
2007,09,14,07,24,10.10
2007,09,14,07,25,10.10
2007,09,14,07,26,10.10
2007,09,14,07,27,10.00
2007,09,14,07,28,10.00
2007,09,14,07,29,10.00
2007,09,14,07,30,9.90
2007,09,14,07,31,9.90
2007,09,14,07,32,9.90
2007,09,14,07,33,9.90
2007,09,14,07,34,9.90
2007,09,14,07,35,9.90
2007,09,14,07,36,9.90
2007,09,14,07,37,9.80
2007,09,14,07,38,9.80
2007,09,14,07,39,9.80
2007,09,14,07,40,9.80
2007,09,14,07,41,9.80
2007,09,14,07,42,9.80
2007,09,14,07,43,9.80
2007,09,14,07,44,9.90
2007,09,14,07,45,9.90
2007,09,14,07,46,9.90
2007,09,14,07,47,10.00
2007,09,14,07,48,10.00
2007,09,14,07,49,10.10
2007,09,14,07,50,10.10
2007,09,14,07,51,10.20
2007,09,14,07,52,10.30
2007,09,14,07,53,10.40
2007,09,14,07,54,10.50
2007,09,14,07,55,10.60
2007,09,14,07,56,10.70
2007,09,14,07,57,10.80
2007,09,14,07,58,10.80
2007,09,14,07,59,10.90
2007,09,14,08,00,10.90
2007,09,14,08,01,11.00
2007,09,14,08,02,11.10
2007,09,14,08,03,11.10
2007,09,14,08,04,11.10
2007,09,14,08,05,11.10
2007,09,14,08,06,11.10
2007,09,14,08,07,11.20
2007,09,14,08,08,11.20
2007,09,14,08,09,11.20
2007,09,14,08,10,11.30
2007,09,14,08,11,11.40
2007,09,14,08,12,11.40
2007,09,14,08,13,11.40
2007,09,14,08,14,11.50
2007,09,14,08,15,11.50
2007,09,14,08,16,11.50
2007,09,14,08,17,11.60
2007,09,14,08,18,11.60
2007,09,14,08,19,11.60
2007,09,14,08,20,11.60
2007,09,14,08,21,11.60
2007,09,14,08,22,11.70
2007,09,14,08,23,11.70
2007,09,14,08,24,11.70
2007,09,14,08,25,11.70
2007,09,14,08,26,11.70
2007,09,14,08,27,11.80
2007,09,14,08,28,11.80
2007,09,14,08,29,11.80
2007,09,14,08,30,11.90
2007,09,14,08,31,11.90
2007,09,14,08,32,12.00
2007,09,14,08,33,12.00
2007,09,14,08,34,12.10
2007,09,14,08,35,12.10
2007,09,14,08,36,12.20
2007,09,14,08,37,12.20
2007,09,14,08,38,12.30
2007,09,14,08,39,12.40
2007,09,14,08,40,12.50
2007,09,14,08,41,12.50
2007,09,14,08,42,12.60
2007,09,14,08,43,12.70
2007,09,14,08,44,12.80
2007,09,14,08,45,12.80
2007,09,14,08,46,12.90
2007,09,14,08,47,12.90
2007,09,14,08,48,13.00
2007,09,14,08,49,13.10
2007,09,14,08,50,13.10
2007,09,14,08,51,13.10
2007,09,14,08,52,13.10
2007,09,14,08,53,13.10
2007,09,14,08,54,13.10
2007,09,14,08,55,13.00
2007,09,14,08,56,13.10
2007,09,14,08,57,13.10
2007,09,14,08,58,13.10
2007,09,14,08,59,13.20
2007,09,14,09,00,13.20
2007,09,14,09,01,13.40
2007,09,14,09,02,13.50
2007,09,14,09,03,13.60
2007,09,14,09,04,13.70
2007,09,14,09,05,13.70
2007,09,14,09,06,13.80
2007,09,14,09,07,13.80
2007,09,14,09,08,13.80
2007,09,14,09,09,13.90
2007,09,14,09,10,13.90
2007,09,14,09,11,14.00
2007,09,14,09,12,14.10
2007,09,14,09,13,14.10
2007,09,14,09,14,14.10
2007,09,14,09,15,14.20
2007,09,14,09,16,14.20
2007,09,14,09,17,14.20
2007,09,14,09,18,14.20
2007,09,14,09,19,14.20
2007,09,14,09,20,14.20
2007,09,14,09,21,14.20
2007,09,14,09,22,14.30
2007,09,14,09,23,14.30
2007,09,14,09,24,14.30
2007,09,14,09,25,14.40
2007,09,14,09,26,14.40
2007,09,14,09,27,14.50
2007,09,14,09,28,14.60
2007,09,14,09,29,14.70
2007,09,14,09,30,14.70
2007,09,14,09,31,14.80
2007,09,14,09,32,14.80
2007,09,14,09,33,14.90
2007,09,14,09,34,15.00
2007,09,14,09,35,15.00
2007,09,14,09,36,15.00
2007,09,14,09,37,15.00
2007,09,14,09,38,15.00
2007,09,14,09,39,15.00
2007,09,14,09,40,15.00
2007,09,14,09,41,15.00
2007,09,14,09,42,15.00
2007,09,14,09,43,15.00
2007,09,14,09,44,15.00
2007,09,14,09,45,15.00
2007,09,14,09,46,15.00
2007,09,14,09,47,15.00
2007,09,14,09,48,15.10
2007,09,14,09,49,15.10
2007,09,14,09,50,15.20
2007,09,14,09,51,15.10
2007,09,14,09,52,15.10
2007,09,14,09,53,15.00
2007,09,14,09,54,15.00
2007,09,14,09,55,15.00
2007,09,14,09,56,15.10
2007,09,14,09,57,15.20
2007,09,14,09,58,15.30
2007,09,14,09,59,15.40
2007,09,14,10,00,15.40
2007,09,14,10,01,15.50
2007,09,14,10,02,15.50
2007,09,14,10,03,15.60
2007,09,14,10,04,15.70
2007,09,14,10,05,15.80
2007,09,14,10,06,15.90
2007,09,14,10,07,16.00
2007,09,14,10,08,16.00
2007,09,14,10,09,16.10
2007,09,14,10,10,16.10
2007,09,14,10,11,16.10
2007,09,14,10,12,16.10
2007,09,14,10,13,16.10
2007,09,14,10,14,16.30
2007,09,14,10,15,16.30
2007,09,14,10,16,16.40
2007,09,14,10,17,16.40
2007,09,14,10,18,16.50
2007,09,14,10,19,16.50
2007,09,14,10,20,16.60
2007,09,14,10,21,16.60
2007,09,14,10,22,16.60
2007,09,14,10,23,16.70
2007,09,14,10,24,16.70
2007,09,14,10,25,16.70
2007,09,14,10,26,16.80
2007,09,14,10,27,16.80
2007,09,14,10,28,16.80
2007,09,14,10,29,16.80
2007,09,14,10,30,16.70
2007,09,14,10,31,16.50
2007,09,14,10,32,16.40
2007,09,14,10,33,16.30
2007,09,14,10,34,16.20
2007,09,14,10,35,16.20
2007,09,14,10,36,16.20
2007,09,14,10,37,16.30
2007,09,14,10,38,16.30
2007,09,14,10,39,16.30
2007,09,14,10,40,16.30
2007,09,14,10,41,16.30
2007,09,14,10,42,16.30
2007,09,14,10,43,16.40
2007,09,14,10,44,16.50
2007,09,14,10,45,16.50
2007,09,14,10,46,16.60
2007,09,14,10,47,16.60
2007,09,14,10,48,16.60
2007,09,14,10,49,16.60
2007,09,14,10,50,16.60
2007,09,14,10,51,16.60
2007,09,14,10,52,16.70
2007,09,14,10,53,16.60
2007,09,14,10,54,16.50
2007,09,14,10,55,16.40
2007,09,14,10,56,16.40
2007,09,14,10,57,16.30
2007,09,14,10,58,16.30
2007,09,14,10,59,16.30
2007,09,14,11,00,16.30
2007,09,14,11,01,16.30
2007,09,14,11,02,16.30
2007,09,14,11,03,16.30
2007,09,14,11,04,16.30
2007,09,14,11,05,16.30
2007,09,14,11,06,16.30
2007,09,14,11,07,16.30
2007,09,14,11,08,16.40
2007,09,14,11,09,16.40
2007,09,14,11,10,16.50
2007,09,14,11,11,16.40
2007,09,14,11,12,16.40
2007,09,14,11,13,16.40
2007,09,14,11,14,16.30
2007,09,14,11,15,16.30
2007,09,14,11,16,16.30
2007,09,14,11,17,16.40
2007,09,14,11,18,16.50
2007,09,14,11,19,16.60
2007,09,14,11,20,16.70
2007,09,14,11,21,16.80
2007,09,14,11,22,16.80
2007,09,14,11,23,16.90
2007,09,14,11,24,16.90
2007,09,14,11,25,17.00
2007,09,14,11,26,16.90
2007,09,14,11,27,17.00
2007,09,14,11,28,17.00
2007,09,14,11,29,17.10
2007,09,14,11,30,17.10
2007,09,14,11,31,17.20
2007,09,14,11,32,17.20
2007,09,14,11,33,17.30
2007,09,14,11,34,17.30
2007,09,14,11,35,17.30
2007,09,14,11,36,17.30
2007,09,14,11,37,17.40
2007,09,14,11,38,17.40
2007,09,14,11,39,17.50
2007,09,14,11,40,17.60
2007,09,14,11,41,17.60
2007,09,14,11,42,17.70
2007,09,14,11,43,17.80
2007,09,14,11,44,17.80
2007,09,14,11,45,17.80
2007,09,14,11,46,17.70
2007,09,14,11,47,17.60
2007,09,14,11,48,17.50
2007,09,14,11,49,17.40
2007,09,14,11,50,17.30
2007,09,14,11,51,17.20
2007,09,14,11,52,17.10
2007,09,14,11,53,17.00
2007,09,14,11,54,16.80
2007,09,14,11,55,16.80
2007,09,14,11,56,16.70
2007,09,14,11,57,16.60
2007,09,14,11,58,16.70
2007,09,14,11,59,16.80
2007,09,14,12,00,16.80
2007,09,14,12,01,16.80
2007,09,14,12,02,16.80
2007,09,14,12,03,16.90
2007,09,14,12,04,16.90
2007,09,14,12,05,17.00
2007,09,14,12,06,17.10
2007,09,14,12,07,17.20
2007,09,14,12,08,17.20
2007,09,14,12,09,17.30
2007,09,14,12,10,17.40
2007,09,14,12,11,17.50
2007,09,14,12,12,17.50
2007,09,14,12,13,17.50
2007,09,14,12,14,17.40
2007,09,14,12,15,17.40
2007,09,14,12,16,17.30
2007,09,14,12,17,17.20
2007,09,14,12,18,17.30
2007,09,14,12,19,17.30
2007,09,14,12,20,17.30
2007,09,14,12,21,17.40
2007,09,14,12,22,17.50
2007,09,14,12,23,17.70
2007,09,14,12,24,17.80
2007,09,14,12,25,18.00
2007,09,14,12,26,18.10
2007,09,14,12,27,18.10
2007,09,14,12,28,18.20
2007,09,14,12,29,18.10
2007,09,14,12,30,18.10
2007,09,14,12,31,18.10
2007,09,14,12,32,18.10
2007,09,14,12,33,18.10
2007,09,14,12,34,18.10
2007,09,14,12,35,18.10
2007,09,14,12,36,18.20
2007,09,14,12,37,18.20
2007,09,14,12,38,18.30
2007,09,14,12,39,18.40
2007,09,14,12,40,18.50
2007,09,14,12,41,18.60
2007,09,14,12,42,18.60
2007,09,14,12,43,18.70
2007,09,14,12,44,18.70
2007,09,14,12,45,18.70
2007,09,14,12,46,18.70
2007,09,14,12,47,18.70
2007,09,14,12,48,18.60
2007,09,14,12,49,18.60
2007,09,14,12,50,18.70
2007,09,14,12,51,18.70
2007,09,14,12,52,18.70
2007,09,14,12,53,18.70
2007,09,14,12,54,18.70
2007,09,14,12,55,18.70
2007,09,14,12,56,18.60
2007,09,14,12,57,18.60
2007,09,14,12,58,18.60
2007,09,14,12,59,18.70
2007,09,14,13,00,18.90
2007,09,14,13,01,19.00
2007,09,14,13,02,19.10
2007,09,14,13,03,19.10
2007,09,14,13,04,19.00
2007,09,14,13,05,19.00
2007,09,14,13,06,18.90
2007,09,14,13,07,18.80
2007,09,14,13,08,18.90
2007,09,14,13,09,18.90
2007,09,14,13,10,18.90
2007,09,14,13,11,19.00
2007,09,14,13,12,19.10
2007,09,14,13,13,19.20
2007,09,14,13,14,19.20
2007,09,14,13,15,19.30
2007,09,14,13,16,19.20
2007,09,14,13,17,19.20
2007,09,14,13,18,19.10
2007,09,14,13,19,19.00
2007,09,14,13,20,19.00
2007,09,14,13,21,19.10
2007,09,14,13,22,19.20
2007,09,14,13,23,19.30
2007,09,14,13,24,19.30
2007,09,14,13,25,19.40
2007,09,14,13,26,19.40
2007,09,14,13,27,19.50
2007,09,14,13,28,19.50
2007,09,14,13,29,19.60
2007,09,14,13,30,19.80
2007,09,14,13,31,19.90
2007,09,14,13,32,19.90
2007,09,14,13,33,20.10
2007,09,14,13,34,20.20
2007,09,14,13,35,20.20
2007,09,14,13,36,20.20
2007,09,14,13,37,20.20
2007,09,14,13,38,20.20
2007,09,14,13,39,20.10
2007,09,14,13,40,20.00
2007,09,14,13,41,20.00
2007,09,14,13,42,20.10
2007,09,14,13,43,20.10
2007,09,14,13,44,20.00
2007,09,14,13,45,19.90
2007,09,14,13,46,19.80
2007,09,14,13,47,19.80
2007,09,14,13,48,19.80
2007,09,14,13,49,19.80
2007,09,14,13,50,19.90
2007,09,14,13,51,19.90
2007,09,14,13,52,19.90
2007,09,14,13,53,19.80
2007,09,14,13,54,19.70
2007,09,14,13,55,19.70
2007,09,14,13,56,19.70
2007,09,14,13,57,19.80
2007,09,14,13,58,19.80
2007,09,14,13,59,19.90
2007,09,14,14,00,20.00
2007,09,14,14,01,20.10
2007,09,14,14,02,20.10
2007,09,14,14,03,20.20
2007,09,14,14,04,20.20
2007,09,14,14,05,20.30
2007,09,14,14,06,20.30
2007,09,14,14,07,20.40
2007,09,14,14,08,20.50
2007,09,14,14,09,20.60
2007,09,14,14,10,20.60
2007,09,14,14,11,20.70
2007,09,14,14,12,20.70
2007,09,14,14,13,20.70
2007,09,14,14,14,20.70
2007,09,14,14,15,20.70
2007,09,14,14,16,20.70
2007,09,14,14,17,20.70
2007,09,14,14,18,20.60
2007,09,14,14,19,20.50
2007,09,14,14,20,20.40
2007,09,14,14,21,20.30
2007,09,14,14,22,20.20
2007,09,14,14,23,20.30
2007,09,14,14,24,20.40
2007,09,14,14,25,20.40
2007,09,14,14,26,20.40
2007,09,14,14,27,20.40
2007,09,14,14,28,20.40
2007,09,14,14,29,20.40
2007,09,14,14,30,20.40
2007,09,14,14,31,20.30
2007,09,14,14,32,20.30
2007,09,14,14,33,20.20
2007,09,14,14,34,20.20
2007,09,14,14,35,20.20
2007,09,14,14,36,20.20
2007,09,14,14,37,20.20
2007,09,14,14,38,20.10
2007,09,14,14,39,20.10
2007,09,14,14,40,20.00
2007,09,14,14,41,19.90
2007,09,14,14,42,19.80
2007,09,14,14,43,19.80
2007,09,14,14,44,19.90
2007,09,14,14,45,19.90
2007,09,14,14,46,19.90
2007,09,14,14,47,20.00
2007,09,14,14,48,20.10
2007,09,14,14,49,20.20
2007,09,14,14,50,20.40
2007,09,14,14,51,20.50
2007,09,14,14,52,20.60
2007,09,14,14,53,20.70
2007,09,14,14,54,20.80
2007,09,14,14,55,20.90
2007,09,14,14,56,21.00
2007,09,14,14,57,21.00
2007,09,14,14,58,20.90
2007,09,14,14,59,20.80
2007,09,14,15,00,20.70
2007,09,14,15,01,20.70
2007,09,14,15,02,20.60
2007,09,14,15,03,20.60
2007,09,14,15,04,20.50
2007,09,14,15,05,20.50
2007,09,14,15,06,20.60
2007,09,14,15,07,20.70
2007,09,14,15,08,20.70
2007,09,14,15,09,20.80
2007,09,14,15,10,20.80
2007,09,14,15,11,20.90
2007,09,14,15,12,21.00
2007,09,14,15,13,21.10
2007,09,14,15,14,21.00
2007,09,14,15,15,21.00
2007,09,14,15,16,20.80
2007,09,14,15,17,20.70
2007,09,14,15,18,20.60
2007,09,14,15,19,20.60
2007,09,14,15,20,20.60
2007,09,14,15,21,20.60
2007,09,14,15,22,20.60
2007,09,14,15,23,20.60
2007,09,14,15,24,20.70
2007,09,14,15,25,20.80
2007,09,14,15,26,20.80
2007,09,14,15,27,20.80
2007,09,14,15,28,20.90
2007,09,14,15,29,20.80
2007,09,14,15,30,20.80
2007,09,14,15,31,20.80
2007,09,14,15,32,20.90
2007,09,14,15,33,20.90
2007,09,14,15,34,20.80
2007,09,14,15,35,20.70
2007,09,14,15,36,20.60
2007,09,14,15,37,20.60
2007,09,14,15,38,20.60
2007,09,14,15,39,20.60
2007,09,14,15,40,20.60
2007,09,14,15,41,20.50
2007,09,14,15,42,20.50
2007,09,14,15,43,20.50
2007,09,14,15,44,20.60
2007,09,14,15,45,20.60
2007,09,14,15,46,20.50
2007,09,14,15,47,20.50
2007,09,14,15,48,20.50
2007,09,14,15,49,20.30
2007,09,14,15,50,20.30
2007,09,14,15,51,20.30
2007,09,14,15,52,20.20
2007,09,14,15,53,20.30
2007,09,14,15,54,20.40
2007,09,14,15,55,20.50
2007,09,14,15,56,20.50
2007,09,14,15,57,20.60
2007,09,14,15,58,20.60
2007,09,14,15,59,20.50
2007,09,14,16,00,20.50
2007,09,14,16,01,20.40
2007,09,14,16,02,20.40
2007,09,14,16,03,20.40
2007,09,14,16,04,20.30
2007,09,14,16,05,20.30
2007,09,14,16,06,20.30
2007,09,14,16,07,20.30
2007,09,14,16,08,20.40
2007,09,14,16,09,20.40
2007,09,14,16,10,20.50
2007,09,14,16,11,20.60
2007,09,14,16,12,20.70
2007,09,14,16,13,20.70
2007,09,14,16,14,20.80
2007,09,14,16,15,20.70
2007,09,14,16,16,20.80
2007,09,14,16,17,20.80
2007,09,14,16,18,20.80
2007,09,14,16,19,20.80
2007,09,14,16,20,20.80
2007,09,14,16,21,20.80
2007,09,14,16,22,20.90
2007,09,14,16,23,20.90
2007,09,14,16,24,21.00
2007,09,14,16,25,21.00
2007,09,14,16,26,21.10
2007,09,14,16,27,21.20
2007,09,14,16,28,21.20
2007,09,14,16,29,21.20
2007,09,14,16,30,21.30
2007,09,14,16,31,21.30
2007,09,14,16,32,21.30
2007,09,14,16,33,21.20
2007,09,14,16,34,21.20
2007,09,14,16,35,21.20
2007,09,14,16,36,21.20
2007,09,14,16,37,21.20
2007,09,14,16,38,21.20
2007,09,14,16,39,21.10
2007,09,14,16,40,21.10
2007,09,14,16,41,21.00
2007,09,14,16,42,21.00
2007,09,14,16,43,21.00
2007,09,14,16,44,21.00
2007,09,14,16,45,21.00
2007,09,14,16,46,21.00
2007,09,14,16,47,21.10
2007,09,14,16,48,21.20
2007,09,14,16,49,21.20
2007,09,14,16,50,21.10
2007,09,14,16,51,21.10
2007,09,14,16,52,21.10
2007,09,14,16,53,21.10
2007,09,14,16,54,21.10
2007,09,14,16,55,21.10
2007,09,14,16,56,21.10
2007,09,14,16,57,21.00
2007,09,14,16,58,21.00
2007,09,14,16,59,20.90
2007,09,14,17,00,20.90
2007,09,14,17,01,20.90
2007,09,14,17,02,20.90
2007,09,14,17,03,20.90
2007,09,14,17,04,20.90
2007,09,14,17,05,20.90
2007,09,14,17,06,20.90
2007,09,14,17,07,20.90
2007,09,14,17,08,21.00
2007,09,14,17,09,21.00
2007,09,14,17,10,21.10
2007,09,14,17,11,21.10
2007,09,14,17,12,21.20
2007,09,14,17,13,21.20
2007,09,14,17,14,21.20
2007,09,14,17,15,21.20
2007,09,14,17,16,21.20
2007,09,14,17,17,21.20
2007,09,14,17,18,21.20
2007,09,14,17,19,21.20
2007,09,14,17,20,21.20
2007,09,14,17,21,21.30
2007,09,14,17,22,21.30
2007,09,14,17,23,21.30
2007,09,14,17,24,21.20
2007,09,14,17,25,21.10
2007,09,14,17,26,20.90
2007,09,14,17,27,20.80